Station Historical Data
Daily Summary for September 6, 2017 Units:  English    Metric   Both
Next Day »
Daily Weekly Monthly Yearly Custom
  High: Low: Average:
Temperature: 85.0 °F 68.0 °F 74.4 °F
Dew Point: 63.8 °F 54.5 °F 59.6 °F
Humidity: 75% 45% 61%
Wind Speed: 9.0mph 0.0mph 1.7mph
Wind Gust: 14.0mph - -
Wind- - SSE
Pressure: 29.96 in 29.88 in -
Precipitation: 0.00 in    
Historical Graphs
 
 
Tabular Data for September 6, 2017
Time Temperature Dew Point Pressure Wind Wind Speed Wind Gust Humidity Rainfall Rate (Hourly) solar Conditions
00:02 71.4 °F 62.7 °F 29.94 in ESE 5.0 mph 7.0 mph 74% 0.00 in 0.00 W/m2
00:07 71.2 °F 62.5 °F 29.94 in Calm   5.0 mph 74% 0.00 in 0.00 W/m2
00:12 70.9 °F 62.2 °F 29.94 in East 7.0 mph 7.0 mph 74% 0.00 in 0.00 W/m2
00:17 70.7 °F 62.0 °F 29.94 in East 4.0 mph 9.0 mph 74% 0.00 in 0.00 W/m2
00:22 70.6 °F 62.3 °F 29.94 in East 2.0 mph 7.0 mph 75% 0.00 in 0.00 W/m2
00:27 70.5 °F 62.2 °F 29.94 in East 4.0 mph 8.0 mph 75% 0.00 in 0.00 W/m2
00:32 70.4 °F 62.1 °F 29.94 in East 4.0 mph 10.0 mph 75% 0.00 in 0.00 W/m2
00:37 70.3 °F 62.0 °F 29.94 in East 7.0 mph 7.0 mph 75% 0.00 in 0.00 W/m2
00:42 70.3 °F 62.0 °F 29.94 in East 7.0 mph 11.0 mph 75% 0.00 in 0.00 W/m2
00:47 70.3 °F 62.0 °F 29.93 in East 1.0 mph 5.0 mph 75% 0.00 in 0.00 W/m2
00:52 70.3 °F 61.6 °F 29.93 in ESE 4.0 mph 9.0 mph 74% 0.00 in 0.00 W/m2
00:57 70.3 °F 61.6 °F 29.94 in East 6.0 mph 8.0 mph 74% 0.00 in 0.00 W/m2
01:02 70.4 °F 61.3 °F 29.94 in ESE 2.0 mph 9.0 mph 73% 0.00 in 0.00 W/m2
01:07 70.4 °F 61.3 °F 29.94 in ESE 4.0 mph 12.0 mph 73% 0.00 in 0.00 W/m2
01:12 70.6 °F 61.5 °F 29.94 in Calm   5.0 mph 73% 0.00 in 0.00 W/m2
01:17 70.6 °F 61.1 °F 29.94 in ESE 1.0 mph 7.0 mph 72% 0.00 in 0.00 W/m2
01:22 70.7 °F 61.2 °F 29.94 in ESE 2.0 mph 7.0 mph 72% 0.00 in 0.00 W/m2
01:27 70.8 °F 60.9 °F 29.94 in ESE 2.0 mph 6.0 mph 71% 0.00 in 0.00 W/m2
01:32 70.8 °F 60.9 °F 29.94 in Calm   6.0 mph 71% 0.00 in 0.00 W/m2
01:37 70.9 °F 61.0 °F 29.93 in Calm   6.0 mph 71% 0.00 in 0.00 W/m2
01:42 70.9 °F 61.0 °F 29.93 in ESE 9.0 mph 11.0 mph 71% 0.00 in 0.00 W/m2
01:47 70.9 °F 61.0 °F 29.93 in ESE 2.0 mph 11.0 mph 71% 0.00 in 0.00 W/m2
01:52 70.8 °F 60.9 °F 29.93 in ESE 2.0 mph 8.0 mph 71% 0.00 in 0.00 W/m2
01:57 70.8 °F 60.9 °F 29.93 in Calm   9.0 mph 71% 0.00 in 0.00 W/m2
02:02 70.8 °F 60.9 °F 29.93 in Calm   7.0 mph 71% 0.00 in 0.00 W/m2
02:07 70.7 °F 60.8 °F 29.93 in ESE 1.0 mph 8.0 mph 71% 0.00 in 0.00 W/m2
02:12 70.7 °F 60.8 °F 29.93 in Calm   8.0 mph 71% 0.00 in 0.00 W/m2
02:17 70.6 °F 60.8 °F 29.94 in Calm   8.0 mph 71% 0.00 in 0.00 W/m2
02:22 70.6 °F 60.8 °F 29.94 in ESE 5.0 mph 11.0 mph 71% 0.00 in 0.00 W/m2
02:27 70.5 °F 60.7 °F 29.94 in ESE 4.0 mph 12.0 mph 71% 0.00 in 0.00 W/m2
02:32 70.5 °F 60.3 °F 29.94 in East 5.0 mph 12.0 mph 70% 0.00 in 0.00 W/m2
02:37 70.4 °F 60.2 °F 29.94 in East 1.0 mph 9.0 mph 70% 0.00 in 0.00 W/m2
02:43 70.4 °F 60.2 °F 29.94 in East 4.0 mph 8.0 mph 70% 0.00 in 0.00 W/m2
02:48 70.3 °F 60.5 °F 29.94 in East 7.0 mph 11.0 mph 71% 0.00 in 0.00 W/m2
02:53 70.2 °F 60.0 °F 29.94 in ESE 4.0 mph 11.0 mph 70% 0.00 in 0.00 W/m2
02:58 70.1 °F 59.9 °F 29.94 in ESE 9.0 mph 9.0 mph 70% 0.00 in 0.00 W/m2
03:03 70.1 °F 59.9 °F 29.94 in East 7.0 mph 11.0 mph 70% 0.00 in 0.00 W/m2
03:08 70.0 °F 59.4 °F 29.94 in ESE 6.0 mph 9.0 mph 69% 0.00 in 0.00 W/m2
03:13 69.9 °F 59.7 °F 29.94 in East 8.0 mph 8.0 mph 70% 0.00 in 0.00 W/m2
03:18 69.9 °F 59.7 °F 29.94 in ESE 2.0 mph 8.0 mph 70% 0.00 in 0.00 W/m2
03:23 69.8 °F 59.2 °F 29.94 in ESE 2.0 mph 11.0 mph 69% 0.00 in 0.00 W/m2
03:28 69.8 °F 59.6 °F 29.94 in ESE 7.0 mph 13.0 mph 70% 0.00 in 0.00 W/m2
03:33 69.7 °F 59.5 °F 29.94 in ESE 2.0 mph 13.0 mph 70% 0.00 in 0.00 W/m2
03:38 69.7 °F 59.5 °F 29.94 in ESE 2.0 mph 11.0 mph 70% 0.00 in 0.00 W/m2
03:43 69.7 °F 59.5 °F 29.94 in ESE 8.0 mph 9.0 mph 70% 0.00 in 0.00 W/m2
03:48 69.7 °F 59.1 °F 29.94 in ESE 5.0 mph 8.0 mph 69% 0.00 in 0.00 W/m2
03:53 69.6 °F 59.0 °F 29.94 in East 5.0 mph 12.0 mph 69% 0.00 in 0.00 W/m2
03:58 69.5 °F 58.9 °F 29.94 in East 6.0 mph 12.0 mph 69% 0.00 in 0.00 W/m2
04:03 69.5 °F 58.9 °F 29.94 in ESE 6.0 mph 13.0 mph 69% 0.00 in 0.00 W/m2
04:08 69.4 °F 58.4 °F 29.94 in East 6.0 mph 13.0 mph 68% 0.00 in 0.00 W/m2
04:13 69.4 °F 58.8 °F 29.94 in East 2.0 mph 9.0 mph 69% 0.00 in 0.00 W/m2
04:18 69.4 °F 58.8 °F 29.94 in East 2.0 mph 11.0 mph 69% 0.00 in 0.00 W/m2
04:23 69.3 °F 58.7 °F 29.94 in East 8.0 mph 14.0 mph 69% 0.00 in 0.00 W/m2
04:28 69.3 °F 58.3 °F 29.94 in East 7.0 mph 8.0 mph 68% 0.00 in 0.00 W/m2
04:33 69.3 °F 58.7 °F 29.94 in East 4.0 mph 8.0 mph 69% 0.00 in 0.00 W/m2
04:38 69.2 °F 58.6 °F 29.94 in East 5.0 mph 12.0 mph 69% 0.00 in 0.00 W/m2
04:43 69.2 °F 58.2 °F 29.94 in ESE 2.0 mph 11.0 mph 68% 0.00 in 0.00 W/m2
04:48 69.1 °F 58.1 °F 29.94 in ESE 4.0 mph 9.0 mph 68% 0.00 in 0.00 W/m2
04:53 69.1 °F 58.5 °F 29.93 in ESE 1.0 mph 6.0 mph 69% 0.00 in 0.00 W/m2
04:58 69.1 °F 58.1 °F 29.93 in Calm   5.0 mph 68% 0.00 in 0.00 W/m2
05:03 69.1 °F 58.5 °F 29.94 in Calm   7.0 mph 69% 0.00 in 0.00 W/m2
05:08 69.0 °F 58.0 °F 29.94 in ESE 4.0 mph 9.0 mph 68% 0.00 in 0.00 W/m2
05:13 69.0 °F 58.0 °F 29.93 in ESE 4.0 mph 8.0 mph 68% 0.00 in 0.00 W/m2
05:18 68.9 °F 57.9 °F 29.93 in ESE 5.0 mph 9.0 mph 68% 0.00 in 0.00 W/m2
05:23 68.8 °F 57.8 °F 29.94 in ESE 4.0 mph 8.0 mph 68% 0.00 in 0.00 W/m2
05:28 68.8 °F 57.8 °F 29.93 in ESE 5.0 mph 8.0 mph 68% 0.00 in 0.00 W/m2
05:33 68.7 °F 57.7 °F 29.93 in ESE 7.0 mph 11.0 mph 68% 0.00 in 0.00 W/m2
05:39 68.6 °F 57.6 °F 29.93 in East 6.0 mph 11.0 mph 68% 0.00 in 0.00 W/m2
05:44 68.6 °F 58.0 °F 29.93 in East 4.0 mph 9.0 mph 69% 0.00 in 0.00 W/m2
05:49 68.6 °F 57.6 °F 29.93 in East 2.0 mph 6.0 mph 68% 0.00 in 0.00 W/m2
05:54 68.5 °F 57.5 °F 29.93 in East 4.0 mph 8.0 mph 68% 0.00 in 0.00 W/m2
05:59 68.5 °F 57.9 °F 29.93 in East 1.0 mph 7.0 mph 69% 0.00 in 0.00 W/m2
06:04 68.5 °F 57.9 °F 29.93 in East 5.0 mph 7.0 mph 69% 0.00 in 0.00 W/m2
06:09 68.4 °F 57.8 °F 29.93 in East 2.0 mph 5.0 mph 69% 0.00 in 0.00 W/m2
06:14 68.4 °F 57.8 °F 29.93 in East 1.0 mph 7.0 mph 69% 0.00 in 0.00 W/m2
06:19 68.3 °F 57.8 °F 29.94 in East 2.0 mph 6.0 mph 69% 0.00 in 0.00 W/m2
06:24 68.3 °F 57.8 °F 29.94 in East 5.0 mph 9.0 mph 69% 0.00 in 0.00 W/m2
06:29 68.3 °F 57.8 °F 29.94 in East 4.0 mph 8.0 mph 69% 0.00 in 0.00 W/m2
06:34 68.2 °F 57.7 °F 29.94 in Calm   11.0 mph 69% 0.00 in 0.00 W/m2
06:39 68.2 °F 57.7 °F 29.94 in East 5.0 mph 7.0 mph 69% 0.00 in 5.00 W/m2
06:44 68.2 °F 57.7 °F 29.94 in East 4.0 mph 6.0 mph 69% 0.00 in 9.00 W/m2
06:50 68.2 °F 57.7 °F 29.94 in Calm   6.0 mph 69% 0.00 in 11.00 W/m2
06:55 68.1 °F 57.6 °F 29.94 in East 5.0 mph 7.0 mph 69% 0.00 in 14.00 W/m2
07:00 68.1 °F 57.6 °F 29.94 in East 6.0 mph 7.0 mph 69% 0.00 in 21.00 W/m2
07:05 68.1 °F 57.6 °F 29.94 in Calm   8.0 mph 69% 0.00 in 28.00 W/m2
07:10 68.1 °F 57.6 °F 29.94 in East 5.0 mph 6.0 mph 69% 0.00 in 33.00 W/m2
07:15 68.1 °F 57.6 °F 29.94 in East 2.0 mph 7.0 mph 69% 0.00 in 47.00 W/m2
07:20 68.0 °F 57.5 °F 29.94 in Calm   7.0 mph 69% 0.00 in 56.00 W/m2
07:25 68.0 °F 57.5 °F 29.94 in East 2.0 mph 9.0 mph 69% 0.00 in 70.00 W/m2
07:30 68.0 °F 57.9 °F 29.94 in Calm   7.0 mph 70% 0.00 in 95.00 W/m2
07:35 68.0 °F 57.9 °F 29.94 in Calm   5.0 mph 70% 0.00 in 116.00 W/m2
07:40 68.0 °F 58.3 °F 29.94 in Calm     71% 0.00 in 93.00 W/m2
07:45 68.1 °F 58.3 °F 29.94 in Calm   7.0 mph 71% 0.00 in 139.00 W/m2
07:50 68.1 °F 58.3 °F 29.94 in Calm   7.0 mph 71% 0.00 in 148.00 W/m2
07:55 68.2 °F 58.5 °F 29.94 in East 4.0 mph 7.0 mph 71% 0.00 in 162.00 W/m2
08:05 68.3 °F 58.9 °F 29.94 in Calm   7.0 mph 72% 0.00 in 200.00 W/m2
08:10 68.4 °F 59.0 °F 29.94 in Calm   7.0 mph 72% 0.00 in 218.00 W/m2
08:15 68.5 °F 59.1 °F 29.94 in Calm   7.0 mph 72% 0.00 in 241.00 W/m2
08:20 68.6 °F 59.2 °F 29.94 in Calm   4.0 mph 72% 0.00 in 248.00 W/m2
08:25 68.7 °F 59.3 °F 29.94 in Calm   5.0 mph 72% 0.00 in 262.00 W/m2
08:31 68.8 °F 59.4 °F 29.94 in Calm   4.0 mph 72% 0.00 in 102.00 W/m2
08:36 69.0 °F 59.6 °F 29.94 in Calm   2.0 mph 72% 0.00 in 315.00 W/m2
08:41 69.1 °F 59.7 °F 29.95 in Calm   1.0 mph 72% 0.00 in 265.00 W/m2
08:46 69.2 °F 59.8 °F 29.95 in Calm     72% 0.00 in 362.00 W/m2
08:51 69.4 °F 60.0 °F 29.95 in Calm     72% 0.00 in 399.00 W/m2
08:56 69.5 °F 60.5 °F 29.95 in Calm     73% 0.00 in 237.00 W/m2
09:01 69.7 °F 60.7 °F 29.95 in Calm     73% 0.00 in 156.00 W/m2
09:06 69.9 °F 60.9 °F 29.95 in Calm     73% 0.00 in 297.00 W/m2
09:11 70.1 °F 61.0 °F 29.95 in Calm     73% 0.00 in 128.00 W/m2
09:16 70.3 °F 61.2 °F 29.95 in Calm     73% 0.00 in 167.00 W/m2
09:21 70.6 °F 61.9 °F 29.95 in Calm     74% 0.00 in 501.00 W/m2
09:26 70.8 °F 62.1 °F 29.95 in Calm     74% 0.00 in 461.00 W/m2
09:31 71.0 °F 61.9 °F 29.95 in Calm     73% 0.00 in 497.00 W/m2
09:36 71.3 °F 61.4 °F 29.95 in Calm     71% 0.00 in 513.00 W/m2
09:41 71.7 °F 61.8 °F 29.95 in Calm     71% 0.00 in 323.00 W/m2
09:46 72.2 °F 61.5 °F 29.95 in Calm     69% 0.00 in 269.00 W/m2
09:51 72.6 °F 62.3 °F 29.95 in Calm     70% 0.00 in 279.00 W/m2
09:52 72.7 °F 62.4 °F 29.95 in Calm     70% 0.00 in 279.00 W/m2
09:57 73.0 °F 62.2 °F 29.95 in Calm     69% 0.00 in 325.00 W/m2
10:02 73.3 °F 62.5 °F 29.95 in Calm     69% 0.00 in 350.00 W/m2
10:07 73.7 °F 60.8 °F 29.95 in Calm     64% 0.00 in 383.00 W/m2
10:08 73.7 °F 60.8 °F 29.95 in Calm     64% 0.00 in 520.00 W/m2
10:13 74.0 °F 61.9 °F 29.95 in Calm     66% 0.00 in 478.00 W/m2
10:18 74.2 °F 61.7 °F 29.95 in Calm     65% 0.00 in 635.00 W/m2
10:23 74.5 °F 62.4 °F 29.95 in Calm     66% 0.00 in 728.00 W/m2
10:28 74.8 °F 63.1 °F 29.95 in Calm     67% 0.00 in 686.00 W/m2
10:33 75.1 °F 62.5 °F 29.95 in ESE 2.0 mph 5.0 mph 65% 0.00 in 729.00 W/m2
10:38 75.3 °F 62.3 °F 29.95 in Calm     64% 0.00 in 635.00 W/m2
10:43 75.5 °F 62.9 °F 29.95 in Calm     65% 0.00 in 536.00 W/m2
10:48 75.8 °F 63.2 °F 29.95 in Calm   1.0 mph 65% 0.00 in 381.00 W/m2
10:53 76.0 °F 63.0 °F 29.96 in Calm   6.0 mph 64% 0.00 in 357.00 W/m2
10:58 76.2 °F 63.1 °F 29.95 in Calm   1.0 mph 64% 0.00 in 366.00 W/m2
11:03 76.3 °F 63.2 °F 29.95 in Calm   6.0 mph 64% 0.00 in 345.00 W/m2
11:08 76.4 °F 63.3 °F 29.95 in Calm   5.0 mph 64% 0.00 in 371.00 W/m2
11:13 76.5 °F 63.4 °F 29.95 in SE 1.0 mph 2.0 mph 64% 0.00 in 362.00 W/m2
11:18 76.5 °F 63.0 °F 29.95 in Calm   1.0 mph 63% 0.00 in 399.00 W/m2
11:23 76.6 °F 62.6 °F 29.95 in Calm   1.0 mph 62% 0.00 in 466.00 W/m2
11:28 76.5 °F 62.5 °F 29.95 in Calm   1.0 mph 62% 0.00 in 427.00 W/m2
11:33 76.4 °F 62.4 °F 29.95 in Calm     62% 0.00 in 388.00 W/m2
11:38 76.4 °F 62.9 °F 29.95 in Calm     63% 0.00 in 408.00 W/m2
11:43 76.5 °F 62.1 °F 29.95 in Calm   1.0 mph 61% 0.00 in 947.00 W/m2
11:48 76.7 °F 62.2 °F 29.95 in Calm   1.0 mph 61% 0.00 in 362.00 W/m2
11:53 76.9 °F 62.9 °F 29.95 in Calm   5.0 mph 62% 0.00 in 485.00 W/m2
11:58 77.1 °F 63.1 °F 29.95 in Calm   4.0 mph 62% 0.00 in 288.00 W/m2
12:03 77.2 °F 62.7 °F 29.95 in Calm     61% 0.00 in 390.00 W/m2
12:08 77.4 °F 63.4 °F 29.95 in Calm     62% 0.00 in 884.00 W/m2
12:13 77.8 °F 63.8 °F 29.95 in Calm   6.0 mph 62% 0.00 in 837.00 W/m2
12:18 78.2 °F 63.7 °F 29.95 in Calm   5.0 mph 61% 0.00 in 802.00 W/m2
12:23 78.8 °F 62.8 °F 29.94 in Calm   4.0 mph 58% 0.00 in 863.00 W/m2
12:28 79.3 °F 63.7 °F 29.94 in Calm   5.0 mph 59% 0.00 in 821.00 W/m2
12:33 80.0 °F 63.4 °F 29.94 in South 1.0 mph 7.0 mph 57% 0.00 in 800.00 W/m2
12:38 80.3 °F 60.0 °F 29.94 in SSW 4.0 mph 4.0 mph 50% 0.00 in 788.00 W/m2
12:43 80.6 °F 60.3 °F 29.94 in Calm   7.0 mph 50% 0.00 in 777.00 W/m2
12:48 80.9 °F 60.0 °F 29.94 in Calm   3.0 mph 49% 0.00 in 793.00 W/m2
12:53 81.1 °F 58.4 °F 29.94 in West 5.0 mph 5.0 mph 46% 0.00 in 780.00 W/m2
12:58 81.5 °F 62.2 °F 29.94 in Calm   7.0 mph 52% 0.00 in 770.00 W/m2
13:03 81.8 °F 60.8 °F 29.93 in WNW 1.0 mph 7.0 mph 49% 0.00 in 779.00 W/m2
13:08 82.0 °F 61.5 °F 29.93 in WNW 2.0 mph 6.0 mph 50% 0.00 in 798.00 W/m2
13:14 82.0 °F 61.5 °F 29.93 in Calm   3.0 mph 50% 0.00 in 809.00 W/m2
13:19 82.0 °F 59.8 °F 29.93 in WNW 2.0 mph 5.0 mph 47% 0.00 in 835.00 W/m2
13:24 82.0 °F 60.4 °F 29.93 in NW 2.0 mph 8.0 mph 48% 0.00 in 788.00 W/m2
13:29 82.1 °F 60.5 °F 29.93 in Calm   4.0 mph 48% 0.00 in 619.00 W/m2
13:34 82.4 °F 60.2 °F 29.93 in NW 2.0 mph 3.0 mph 47% 0.00 in 833.00 W/m2
13:39 82.8 °F 59.9 °F 29.93 in WSW 6.0 mph 9.0 mph 46% 0.00 in 788.00 W/m2
13:44 83.2 °F 60.9 °F 29.93 in Calm   4.0 mph 47% 0.00 in 773.00 W/m2
13:49 83.9 °F 60.9 °F 29.92 in SW 8.0 mph 11.0 mph 46% 0.00 in 775.00 W/m2
13:54 84.6 °F 62.2 °F 29.92 in Calm   6.0 mph 47% 0.00 in 775.00 W/m2
13:59 85.0 °F 62.5 °F 29.92 in WSW 1.0 mph 6.0 mph 47% 0.00 in 826.00 W/m2
14:04 84.7 °F 62.9 °F 29.92 in SW 1.0 mph 9.0 mph 48% 0.00 in 828.00 W/m2
14:09 84.7 °F 62.9 °F 29.92 in West 4.0 mph 11.0 mph 48% 0.00 in 766.00 W/m2
14:14 84.7 °F 62.9 °F 29.92 in West 7.0 mph 9.0 mph 48% 0.00 in 766.00 W/m2
14:20 84.6 °F 62.8 °F 29.92 in West 1.0 mph 10.0 mph 48% 0.00 in 770.00 W/m2
14:25 84.2 °F 62.4 °F 29.92 in West 1.0 mph 8.0 mph 48% 0.00 in 745.00 W/m2
14:30 83.9 °F 62.7 °F 29.91 in WSW 3.0 mph 13.0 mph 49% 0.00 in 731.00 W/m2
14:35 83.9 °F 62.1 °F 29.91 in SW 1.0 mph 8.0 mph 48% 0.00 in 717.00 W/m2
14:40 83.9 °F 61.5 °F 29.91 in SW 8.0 mph 11.0 mph 47% 0.00 in 705.00 W/m2
14:45 84.0 °F 60.4 °F 29.91 in SW 9.0 mph 12.0 mph 45% 0.00 in 700.00 W/m2
14:50 84.1 °F 61.1 °F 29.90 in Calm   8.0 mph 46% 0.00 in 696.00 W/m2
14:55 83.9 °F 60.9 °F 29.90 in Calm   9.0 mph 46% 0.00 in 686.00 W/m2
14:58 83.7 °F 60.7 °F 29.90 in SSW 6.0 mph 10.0 mph 46% 0.00 in 679.00 W/m2
15:03 83.4 °F 60.5 °F 29.91 in WSW 1.0 mph 10.0 mph 46% 0.00 in 675.00 W/m2
15:08 83.3 °F 61.0 °F 29.91 in Calm   4.0 mph 47% 0.00 in 673.00 W/m2
15:13 83.3 °F 61.0 °F 29.90 in West 3.0 mph 9.0 mph 47% 0.00 in 675.00 W/m2
15:18 83.3 °F 60.4 °F 29.90 in West 3.0 mph 8.0 mph 46% 0.00 in 671.00 W/m2
15:23 83.4 °F 61.1 °F 29.90 in WSW 5.0 mph 8.0 mph 47% 0.00 in 659.00 W/m2
15:28 83.4 °F 61.1 °F 29.90 in WSW 5.0 mph 8.0 mph 47% 0.00 in 645.00 W/m2
15:33 83.4 °F 60.5 °F 29.90 in SW 2.0 mph 3.0 mph 46% 0.00 in 621.00 W/m2
15:38 83.2 °F 60.9 °F 29.90 in NW 3.0 mph 10.0 mph 47% 0.00 in 608.00 W/m2
15:43 83.1 °F 60.8 °F 29.90 in Calm     47% 0.00 in 587.00 W/m2
15:48 83.1 °F 60.8 °F 29.90 in WNW 1.0 mph 11.0 mph 47% 0.00 in 577.00 W/m2
15:53 83.1 °F 60.8 °F 29.89 in WSW 4.0 mph 10.0 mph 47% 0.00 in 564.00 W/m2
15:58 83.1 °F 60.8 °F 29.89 in Calm   7.0 mph 47% 0.00 in 561.00 W/m2
16:03 83.0 °F 60.7 °F 29.89 in SW 7.0 mph 11.0 mph 47% 0.00 in 552.00 W/m2
16:08 83.0 °F 60.7 °F 29.89 in Calm   8.0 mph 47% 0.00 in 538.00 W/m2
16:11 83.0 °F 60.1 °F 29.89 in Calm     46% 0.00 in 529.00 W/m2
16:16 83.1 °F 60.8 °F 29.89 in West 3.0 mph 4.0 mph 47% 0.00 in 510.00 W/m2
16:21 83.1 °F 60.8 °F 29.90 in Calm     47% 0.00 in 496.00 W/m2
16:26 83.2 °F 60.3 °F 29.89 in WSW 4.0 mph 4.0 mph 46% 0.00 in 482.00 W/m2
16:31 83.3 °F 61.0 °F 29.89 in WSW 5.0 mph 5.0 mph 47% 0.00 in 462.00 W/m2
16:36 83.3 °F 61.0 °F 29.89 in West 1.0 mph 1.0 mph 47% 0.00 in 443.00 W/m2
16:41 83.2 °F 60.9 °F 29.89 in WSW 2.0 mph 2.0 mph 47% 0.00 in 427.00 W/m2
16:46 83.2 °F 60.3 °F 29.89 in Calm     46% 0.00 in 418.00 W/m2
16:51 83.2 °F 60.3 °F 29.89 in Calm     46% 0.00 in 404.00 W/m2
16:56 83.2 °F 60.9 °F 29.89 in Calm     47% 0.00 in 390.00 W/m2
17:01 83.2 °F 60.9 °F 29.89 in West 3.0 mph 4.0 mph 47% 0.00 in 378.00 W/m2
17:06 83.2 °F 60.9 °F 29.88 in WSW 1.0 mph 4.0 mph 47% 0.00 in 366.00 W/m2
17:11 83.2 °F 60.9 °F 29.88 in West 1.0 mph 1.0 mph 47% 0.00 in 348.00 W/m2
17:16 83.0 °F 60.1 °F 29.89 in West 4.0 mph 4.0 mph 46% 0.00 in 334.00 W/m2
17:21 82.9 °F 60.6 °F 29.88 in WSW 9.0 mph 9.0 mph 47% 0.00 in 316.00 W/m2
17:26 82.8 °F 60.5 °F 29.89 in WSW 1.0 mph 1.0 mph 47% 0.00 in 304.00 W/m2
17:31 82.5 °F 60.3 °F 29.89 in Calm   3.0 mph 47% 0.00 in 288.00 W/m2
17:36 82.3 °F 60.7 °F 29.88 in SW 6.0 mph 6.0 mph 48% 0.00 in 269.00 W/m2
17:41 82.1 °F 61.1 °F 29.88 in Calm     49% 0.00 in 250.00 W/m2
17:46 81.9 °F 60.9 °F 29.88 in West 6.0 mph 7.0 mph 49% 0.00 in 236.00 W/m2
17:51 81.6 °F 60.6 °F 29.88 in WSW 7.0 mph 7.0 mph 49% 0.00 in 220.00 W/m2
17:56 81.5 °F 60.5 °F 29.88 in Calm   2.0 mph 49% 0.00 in 204.00 W/m2
18:01 81.3 °F 60.3 °F 29.88 in Calm   1.0 mph 49% 0.00 in 195.00 W/m2
18:06 81.0 °F 60.1 °F 29.88 in Calm     49% 0.00 in 179.00 W/m2
18:11 80.8 °F 59.9 °F 29.88 in WSW 1.0 mph 7.0 mph 49% 0.00 in 169.00 W/m2
18:16 80.5 °F 60.2 °F 29.88 in West 2.0 mph 3.0 mph 50% 0.00 in 155.00 W/m2
18:21 80.3 °F 60.5 °F 29.88 in WSW 6.0 mph 6.0 mph 51% 0.00 in 141.00 W/m2
18:26 80.1 °F 60.4 °F 29.88 in West 1.0 mph 2.0 mph 51% 0.00 in 127.00 W/m2
18:31 79.8 °F 60.6 °F 29.88 in Calm   1.0 mph 52% 0.00 in 128.00 W/m2
18:36 79.6 °F 59.9 °F 29.88 in Calm     51% 0.00 in 120.00 W/m2
18:41 79.4 °F 60.3 °F 29.88 in Calm   7.0 mph 52% 0.00 in 107.00 W/m2
18:46 79.2 °F 60.1 °F 29.88 in Calm     52% 0.00 in 83.00 W/m2
18:51 79.1 °F 60.0 °F 29.89 in West 2.0 mph 5.0 mph 52% 0.00 in 58.00 W/m2
18:56 78.9 °F 59.8 °F 29.89 in West 4.0 mph 7.0 mph 52% 0.00 in 44.00 W/m2
19:01 78.7 °F 59.6 °F 29.89 in Calm   6.0 mph 52% 0.00 in 33.00 W/m2
19:06 78.5 °F 60.0 °F 29.89 in Calm   1.0 mph 53% 0.00 in 26.00 W/m2
19:16 77.8 °F 59.3 °F 29.89 in Calm     53% 0.00 in 14.00 W/m2
19:21 77.5 °F 59.6 °F 29.89 in Calm     54% 0.00 in 9.00 W/m2
19:26 77.3 °F 59.4 °F 29.89 in Calm     54% 0.00 in 5.00 W/m2
19:31 77.1 °F 59.7 °F 29.90 in Calm     55% 0.00 in 0.00 W/m2
19:36 76.9 °F 59.0 °F 29.90 in Calm     54% 0.00 in 0.00 W/m2
19:41 76.6 °F 59.2 °F 29.89 in Calm   4.0 mph 55% 0.00 in 0.00 W/m2
19:46 76.4 °F 59.1 °F 29.89 in Calm   4.0 mph 55% 0.00 in 0.00 W/m2
19:51 76.0 °F 58.2 °F 29.89 in Calm     54% 0.00 in 0.00 W/m2
19:56 75.8 °F 58.0 °F 29.90 in Calm     54% 0.00 in 0.00 W/m2
20:02 75.6 °F 57.8 °F 29.90 in Calm     54% 0.00 in 0.00 W/m2
20:07 75.4 °F 57.6 °F 29.90 in Calm     54% 0.00 in 0.00 W/m2
20:20 74.8 °F 58.1 °F 29.90 in Calm     56% 0.00 in 0.00 W/m2
20:22 74.7 °F 58.0 °F 29.91 in Calm     56% 0.00 in 0.00 W/m2
20:26 74.6 °F 57.4 °F 29.91 in Calm     55% 0.00 in 0.00 W/m2
20:28 74.4 °F 57.2 °F 29.91 in Calm     55% 0.00 in 0.00 W/m2
20:29 74.3 °F 57.1 °F 29.91 in Calm     55% 0.00 in 0.00 W/m2
20:34 73.8 °F 57.1 °F 29.91 in Calm     56% 0.00 in 0.00 W/m2
20:39 73.5 °F 56.9 °F 29.91 in Calm     56% 0.00 in 0.00 W/m2
20:44 73.2 °F 56.6 °F 29.91 in Calm     56% 0.00 in 0.00 W/m2
20:49 72.6 °F 56.5 °F 29.91 in Calm     57% 0.00 in 0.00 W/m2
20:54 72.2 °F 56.1 °F 29.91 in Calm     57% 0.00 in 0.00 W/m2
20:59 72.1 °F 56.0 °F 29.91 in Calm     57% 0.00 in 0.00 W/m2
21:05 71.9 °F 55.9 °F 29.91 in Calm     57% 0.00 in 0.00 W/m2
21:10 71.6 °F 56.1 °F 29.91 in Calm     58% 0.00 in 0.00 W/m2
21:15 71.4 °F 55.9 °F 29.91 in Calm     58% 0.00 in 0.00 W/m2
21:20 71.3 °F 55.8 °F 29.91 in Calm     58% 0.00 in 0.00 W/m2
21:25 71.2 °F 55.7 °F 29.90 in Calm     58% 0.00 in 0.00 W/m2
21:30 70.9 °F 55.9 °F 29.90 in Calm     59% 0.00 in 0.00 W/m2
21:35 70.7 °F 55.7 °F 29.90 in Calm     59% 0.00 in 0.00 W/m2
21:40 70.6 °F 55.6 °F 29.90 in Calm     59% 0.00 in 0.00 W/m2
21:45 70.7 °F 55.7 °F 29.90 in Calm     59% 0.00 in 0.00 W/m2
21:50 70.6 °F 55.6 °F 29.90 in Calm     59% 0.00 in 0.00 W/m2
21:55 70.5 °F 56.0 °F 29.90 in Calm     60% 0.00 in 0.00 W/m2
22:00 70.4 °F 55.9 °F 29.90 in Calm     60% 0.00 in 0.00 W/m2
22:05 70.4 °F 55.9 °F 29.90 in Calm     60% 0.00 in 0.00 W/m2
22:10 70.4 °F 55.4 °F 29.90 in Calm     59% 0.00 in 0.00 W/m2
22:15 70.4 °F 55.4 °F 29.90 in Calm     59% 0.00 in 0.00 W/m2
22:20 70.4 °F 55.4 °F 29.90 in Calm     59% 0.00 in 0.00 W/m2
22:25 70.3 °F 55.3 °F 29.91 in Calm     59% 0.00 in 0.00 W/m2
22:30 70.3 °F 55.3 °F 29.91 in Calm     59% 0.00 in 0.00 W/m2
22:35 70.2 °F 55.2 °F 29.90 in Calm     59% 0.00 in 0.00 W/m2
22:40 70.1 °F 55.1 °F 29.90 in Calm     59% 0.00 in 0.00 W/m2
22:45 69.9 °F 54.9 °F 29.90 in Calm     59% 0.00 in 0.00 W/m2
22:50 69.9 °F 54.9 °F 29.91 in Calm     59% 0.00 in 0.00 W/m2
22:51 69.9 °F 54.9 °F 29.91 in Calm     59% 0.00 in 0.00 W/m2
22:56 69.7 °F 54.8 °F 29.91 in Calm     59% 0.00 in 0.00 W/m2
23:01 69.5 °F 55.0 °F 29.91 in Calm     60% 0.00 in 0.00 W/m2
23:06 69.4 °F 54.9 °F 29.91 in Calm     60% 0.00 in 0.00 W/m2
23:11 69.4 °F 54.9 °F 29.91 in Calm     60% 0.00 in 0.00 W/m2
23:16 69.2 °F 54.7 °F 29.91 in Calm     60% 0.00 in 0.00 W/m2
23:21 69.1 °F 54.7 °F 29.91 in Calm     60% 0.00 in 0.00 W/m2
23:26 69.1 °F 54.7 °F 29.91 in Calm     60% 0.00 in 0.00 W/m2
23:31 69.0 °F 54.5 °F 29.91 in Calm     60% 0.00 in 0.00 W/m2
23:36 69.0 °F 54.5 °F 29.91 in Calm     60% 0.00 in 0.00 W/m2
23:41 68.8 °F 54.8 °F 29.91 in Calm     61% 0.00 in 0.00 W/m2
23:46 68.7 °F 54.7 °F 29.90 in Calm     61% 0.00 in 0.00 W/m2
23:51 68.5 °F 54.5 °F 29.91 in Calm     61% 0.00 in 0.00 W/m2
23:56 68.5 °F 54.5 °F 29.91 in Calm     61% 0.00 in 0.00 W/m2
Foresthill Weather
 WU-history PHP script courtesy of   Juneau County Weather.
powered by Cumulus v1.9.3 (1059)
Ambient Weather VWS v14.00
Top Contact Website Map Copyright © 2007 - 2018 Foresthillweather.com Never base important decisions on this or any weather information obtained from the Internet